Location: Gebenbach
(49.5378°N, 11.8735°E)
Time: 12:17:41
(UTC+00:00)

CZ-2D R/B - Pass Details

Date: 29 October 2020
Orbit: 521 x 537 km, 97.4° (Epoch: 24 November)

Event Time Altitude Azimuth Distance (km) Brightness Sun altitude
Rises 17:21:14 0° 163° (SSE) 2,649 6.7 -14.5°
Reaches altitude 10° 17:23:20 10° 162° (SSE) 1,763 5.8 -14.8°
Maximum altitude 17:27:08 82° 77° (ENE) 536 3.1 -15.4°
Drops below altitude 10° 17:30:58 10° 349° (NNW) 1,772 6.0 -16.0°
Sets 17:33:04 0° 348° (NNW) 2,665 6.9 -16.4°
